Београд, метеограме

Београд: време по сату
Петак, 18 Октобра
Време Падавине Температура Осећа се Притисак Влажност Ветар
23:00 0 мм +16.8° +17.2° 754.000 мм.ж.с 68% 0 м/с, СИ
Субота, 19 Октобра
Време Падавине Температура Осећа се Притисак Влажност Ветар
00:00 0 мм +16.4° +16.8° 754.000 мм.ж.с 69% 0 м/с, И
01:00 0 мм +16° +16.3° 755.000 мм.ж.с 70% 0 м/с, ЈИ
02:00 0 мм +15.5° +15.9° 754.000 мм.ж.с 71% 0 м/с, ЈИ
03:00 0 мм +15.1° +15.5° 754.000 мм.ж.с 72% 1 м/с, ЈИ
04:00 0 мм +14.7° +15.1° 754.000 мм.ж.с 73% 1 м/с, ЈИ
05:00 0 мм +14.9° +15.2° 754.000 мм.ж.с 72% 1 м/с, ЈИ
06:00 0 мм +15° +15.3° 755.000 мм.ж.с 71% 1 м/с, ЈИ
07:00 0 мм +15.1° +15.4° 755.000 мм.ж.с 71% 1 м/с, Ј
08:00 0 мм +17.3° +17.5° 755.000 мм.ж.с 63% 1 м/с, Ј
09:00 0 мм +19.5° +19.5° 754.000 мм.ж.с 55% 2 м/с, Ј
10:00 0 мм +21.7° +21.5° 754.000 мм.ж.с 48% 2 м/с, Ј
11:00 0 мм +23° +22.7° 754.000 мм.ж.с 43% 2 м/с, Ј
12:00 0 мм +24.3° +23.8° 754.000 мм.ж.с 39% 2 м/с, Ј
13:00 0 мм +25.7° +25° 753.000 мм.ж.с 35% 2 м/с, Ј
14:00 0 мм +25.2° +24.5° 753.000 мм.ж.с 36% 1 м/с, Ј
15:00 0 мм +24.6° +24° 753.000 мм.ж.с 37% 1 м/с, ЈИ
16:00 0 мм +24.1° +23.6° 753.000 мм.ж.с 38% 1 м/с, И
17:00 0 мм +22.6° +22.1° 753.000 мм.ж.с 42% 1 м/с, И
18:00 0 мм +21° +20.6° 754.000 мм.ж.с 45% 1 м/с, И
19:00 0 мм +19.4° +19.2° 754.000 мм.ж.с 49% 1 м/с, И
20:00 0 мм +18.9° +18.6° 754.000 мм.ж.с 50% 1 м/с, И
21:00 0 мм +18.3° +18° 755.000 мм.ж.с 51% 1 м/с, ЈИ
22:00 0 мм +17.7° +17.5° 755.000 мм.ж.с 53% 1 м/с, ЈИ
23:00 0 мм +17.2° +17° 755.000 мм.ж.с 55% 1 м/с, ЈИ
Недеља, 20 Октобра
Време Падавине Температура Осећа се Притисак Влажност Ветар
00:00 0 мм +16.7° +16.6° 755.000 мм.ж.с 57% 1 м/с, ЈИ
01:00 0 мм +16.2° +16.2° 755.000 мм.ж.с 59% 1 м/с, Ј
02:00 0 мм +15.8° +15.8° 755.000 мм.ж.с 61% 1 м/с, Ј
03:00 0 мм +15.4° +15.4° 755.000 мм.ж.с 62% 1 м/с, Ј
04:00 0 мм +15° +15.1° 755.000 мм.ж.с 64% 1 м/с, Ј
05:00 0 мм +15.1° +15.2° 755.000 мм.ж.с 63% 1 м/с, Ј
06:00 0 мм +15.3° +15.3° 756.000 мм.ж.с 63% 1 м/с, Ј
07:00 0 мм +15.4° +15.4° 756.000 мм.ж.с 62% 1 м/с, Ј
08:00 0 мм +17.6° +17.4° 756.000 мм.ж.с 55% 1 м/с, Ј
09:00 0 мм +19.7° +19.4° 756.000 мм.ж.с 47% 2 м/с, Ј
10:00 0 мм +21.9° +21.3° 756.000 мм.ж.с 40% 2 м/с, Ј
11:00 0 мм +23.3° +22.6° 756.000 мм.ж.с 37% 2 м/с, ЈИ
12:00 0 мм +24.6° +23.7° 755.000 мм.ж.с 33% 2 м/с, ЈИ
13:00 0 мм +26° +24.9° 755.000 мм.ж.с 29% 2 м/с, ЈИ
14:00 0 мм +25.4° +24.4° 755.000 мм.ж.с 31% 2 м/с, ЈИ
15:00 0 мм +24.9° +23.9° 755.000 мм.ж.с 32% 1 м/с, ЈИ
16:00 0 мм +24.3° +23.4° 755.000 мм.ж.с 33% 1 м/с, ЈИ
17:00 0 мм +22.7° +21.9° 755.000 мм.ж.с 36% 1 м/с, ЈИ
18:00 0 мм +21.1° +20.4° 755.000 мм.ж.с 39% 1 м/с, ЈИ
19:00 0 мм +19.6° +19° 756.000 мм.ж.с 43% 2 м/с, ЈИ
20:00 0 мм +19° +18.5° 756.000 мм.ж.с 45% 2 м/с, ЈИ
21:00 0 мм +18.5° +18° 756.000 мм.ж.с 46% 2 м/с, ЈИ
22:00 0 мм +17.9° +17.5° 756.000 мм.ж.с 48% 2 м/с, ЈИ

Такође

Meteograms hourly weather Мапе времена Преглед времена
Meteograms hourly weather Мапе времена Преглед времена
 
Време у Србији:
О проjекту
© meteoprog.rs 2003-2019.
Meteoprog.ua - погода в Украине 0.0434
sitemap